Simultaneous Nadir Overpasses (SNOs) Predictions

Prediction of SNOs between AURA and NPP Satellite Orbit:

Table of predicted SNOs for the next 14.0 days since TLE Epoch: 7/13/2012
Index Date (AURA) Time (AURA) AURA Lat,Lon Date (NPP) Time (NPP) NPP Lat,Lon Distance(km) Time Diff (sec)
1 07/13/2012 20:47:23 -79.79, -53.10 07/13/2012 20:47:10 -79.80, -53.03 1.70 13
2 07/13/2012 21:36:45 79.94, 115.67 07/13/2012 21:37:50 79.93, 115.58 1.92 65
3 07/16/2012 12:14:25 79.68,-105.68 07/16/2012 12:13:24 79.68,-105.62 1.11 61
4 07/16/2012 13:03:48 -79.83, 63.08 07/16/2012 13:04:05 -79.82, 62.97 2.17 17
5 07/19/2012 04:30:48 79.77, 10.87 07/19/2012 04:30:17 79.77, 10.94 1.45 31
6 07/19/2012 05:20:12 -79.88, 179.38 07/19/2012 05:20:59 -79.88, 179.26 2.27 47
7 07/21/2012 20:47:11 79.80, 126.99 07/21/2012 20:47:11 79.80, 126.95 0.88 0
8 07/24/2012 12:14:12 -79.71, 74.58 07/24/2012 12:13:25 -79.72, 74.67 2.03 47
9 07/24/2012 13:03:33 79.88,-116.49 07/24/2012 13:04:04 79.89,-116.46 0.66 31
10 07/27/2012 04:30:34 -79.78,-169.05 07/27/2012 04:30:19 -79.78,-169.03 0.29 15




NCC Satellite Simultaneous Nadir Overpasses (SNOs) Prediction Service
